Location: Wavehorne
(51.0500°N, 0.8333°E)
Time: 02:41:31
(UTC+00:00)

GP-B - Pass Details

Date: 20 June 2021
Orbit: 631 x 635 km, 89.8° (Epoch: 25 July)

Event Time Altitude Azimuth Distance (km) Brightness Sun altitude
Rises 00:32:48 0° 355° (N) 2,946 8.2 -15.1°
Reaches altitude 10° 00:35:07 10° 349° (NNW) 2,032 6.9 -15.1°
Maximum altitude 00:39:18 41° 280° (W) 931 3.9 -15.0°
Enters shadow 00:41:50 21° 221° (SW) 1,437 4.4 -14.9°
